Skip Page Navigation
NASA JPL Caltech
NASA Logo - Jet Propulsion Laboratory + View the NASA Portal
+ Center for Near-Earth Object Studies
JPL Home Earth Solar System Stars & Galaxies Technology
JPL Solar System Dynamics
BODIES ORBITS EPHEMERIDES TOOLS PHYSICAL DATA DISCOVERY FAQ SITE MAP
JPL Small-Body Database Browser
Search: [ help ]  
8652 Acacia (1990 EA5)
Classification: Main-belt Asteroid          SPK-ID: 2008652
Ephemeris | Orbit Diagram | Orbital Elements | Mission Design | Physical Parameters | Discovery Circumstances ]

[ show orbit diagram ]
Orbital Elements at Epoch 2459200.5 (2020-Dec-17.0) TDB
Reference: JPL 35 (heliocentric ecliptic J2000)
 Element Value Uncertainty (1-sigma)   Units 
e .1708988810114204 3.3982e-08  
a 2.466519764428118 7.6463e-09 au
q 2.044994296694801 8.3955e-08 au
i 1.852103443990619 3.9051e-06 deg
node 302.38203962 9.9566e-05 deg
peri 350.604118267058 0.00010002 deg
M 236.8559010488014 9.75e-06 deg
tp 2459684.490047577564
(2022-Apr-14.99004758)
3.904e-05 TDB
period 1414.898631861947
3.87
6.5794e-06
1.801e-08
d
yr
n .2544351884249511 1.1831e-09 deg/d
Q 2.888045232161436 8.9531e-09 au
  Orbit Determination Parameters
   # obs. used (total)      2032  
   data-arc span      26024 days (71.25 yr)  
   first obs. used      1949-12-22  
   last obs. used      2021-03-23  
   planetary ephem.      DE441  
   SB-pert. ephem.      SB441-N16  
   condition code      0  
   norm. resid. RMS      .51062  
   source      ORB  
   producer      Otto Matic  
   solution date      2021-May-04 00:02:26  

Additional Information
 Earth MOID = 1.02692 au 
 Jupiter MOID = 2.29567 au 
 T_jup = 3.466 
[ show covariance matrix ]

Ephemeris | Orbit Diagram | Orbital Elements | Mission Design | Physical Parameters | Discovery Circumstances ]

Physical Parameter Table
Parameter Symbol Value Units Sigma Reference Notes
absolute magnitude H 14.18   n/a MPCxxxxx  
diameter diameter 4.098 km 0.185 urn:nasa:pds:neowise_diameters_albedos::2.0[mainbelt] (http://adsabs.harvard.edu/abs/2011ApJ...741...68M)  
geometric albedo albedo 0.290   0.063 urn:nasa:pds:neowise_diameters_albedos::2.0[mainbelt] (http://adsabs.harvard.edu/abs/2011ApJ...741...68M)  

8652 Acacia           Discovered 1990 Mar. 2 by E. W. Elst at the European Southern Observatory
Named for Acacia, belonging to the family Mimosaceae. Acacia mearnsii (mimosa) is a shrub with feathery leaves composed of many small leaflets. The strongly scented tiny yellow flowers are grouped in loose, rounded clusters.
NOTE: some special characters may not display properly (any characters within {} are an attempt to place the proper accent above a character)
Reference: 19990402/MPCPages.arcLast Updated: 2010-06-11

Alternate Designations
 1990 EA5 = 1979 MC1 = 1990 GQ = 1991 SW1 
Ephemeris | Orbit Diagram | Orbital Elements | Mission Design | Physical Parameters | Discovery Circumstances ]
ABOUT SSD CREDITS/AWARDS PRIVACY/COPYRIGHT GLOSSARY LINKS
FirstGov 2021-Jun-17 00:45 UT
(server date/time)  
NASA Home Page
Site Manager:   Ryan S. Park
Webmaster  Alan B. Chamberlin